CZ-6A DEB, 60649

Orbit data source: Space-Track

CZ-6A DEB, 60649 is space debris in LEO originally from a launch on Tue, 06 Aug 2024 UTC launched from the Taiyaun Space Center, China (TSC). Debris objects in space refer to the collection of defunct objects orbiting the Earth. Examples of debris include non-operational satellites, rocket bodies, and fragments generated from explosions, collisions, or faulty payload assembly.

Loading next visibility...
Identifier
60649, 2024-140BA
Orbit
LEO
Country
Flag of CNCN / PRC
Related business
Manufacturer
SAST
Mission
Spacecraft
Bus & Motor
Unknown
Mass
Unknown
Launch date (UTC)
2024-08-06 (1 year ago)
Launch vehicle
Unknown
Launch site
Taiyaun Space Center, China (TSC)
Object type
Payload
Rocket body
Debris
Shape & HBR
Unknown shape, 0.7 m
Radar Cross Section
Medium (>0.1 m² and <1 m²)

Expand to show TLE details & history
Last TLE update: 19 hours ago

TLE from 19 hours ago
0 CZ-6A DEB
1 60649U 24140BA  25351.33165775  .00000487  00000-0  10418-3 0  9995
2 60649  88.9898 291.4239 0112696 162.3128 198.2055 14.53090088 71988
Epoch: 2025-12-17T07:57Z
TLE epoch observation values (Epoch: 2025-12-17T07:57:35.229Z)
Latitude
-0.00009°
Longitude
85.82407°
Altitude
794.72 km
Speed
7.416 km/s
True Right ascension
19h 25m 41s
True Declination
0° 00' 00"
Sunlit
Object was in daylight at epoch
Visualization orbit readout
Latitude
Unknown
Longitude
Unknown
Altitude
Unknown
Speed
Unknown
Apparent Right ascension
Unknown
Apparent Declination
Unknown
Sunlit
N/A
Visualization observer readout
Local Sidereal Time
01:31:30
Azimuth
Unknown
Elevation
Unknown
Doppler factor
Unknown
Orbital elements
Apogee altitude
792.386 km
Perigee altitude
632.569 km
Semi-major axis
7,090.614 km
Eccentricity
0.01127
Inclination
88.9898°
RAAN
291.4239°
Arg. of periapsis
162.3128°
True anomaly
197.80737°
Mean anomaly
198.2055°
Eccentric anomaly
198.0059°
Mean motion
3.63511 °/min
Orbital period
99.03 mins
BSTAR
0.00010418
Loading maneuver chart data...
Computing Atmospheric mass density...
Loading historical data...
Loading historical data...
Loading historical data...
Loading historical data...
Loading historical data...
Loading historical data...
Loading historical data...

Documentation

Showing up to 5 results
|